Ontario, OR

2:34 PM MST on December 14, 2017 (GMT -0700)
Ontario Municipal

Weather History for KONO - September, 2013

Change the Weather History Date:

Sunday, September 8, 2013

  Actual Average Record
Temperature  
Mean Temperature 69 °F 66 °F  
Max Temperature 86 °F 84 °F 98 °F (1969)
Min Temperature 52 °F 48 °F 35 °F (1971)
Degree Days  
Heating Degree Days 0 2  
Month to date heating degree days 0 12  
Since 1 July heating degree days 0 28  
Cooling Degree Days 4 3  
Month to date cooling degree days 58 29  
Year to date cooling degree days 1230 822  
Growing Degree Days 19 (Base 50)    
Moisture  
Dew Point 48 °F    
Average Humidity 55    
Maximum Humidity 89    
Minimum Humidity 21    
Precipitation  
Precipitation 0.00 in 0.01 in 0.18 in (1985)
Month to date precipitation T 0.08  
Year to date precipitation 2.61 6.32  
Sea Level Pressure  
Sea Level Pressure 29.95 in    
Wind  
Wind Speed 8 mph (NW)    
Max Wind Speed 23 mph    
Max Gust Speed 28 mph    
Visibility 10 miles    
Events      
T = Trace of Precipitation, MM = Missing Value Source: NWS Daily Summary

Daily Weather History Graph

Daily Weather History Graph

Search for Another Location

Airport or City:

Trip Planner

Search our weather history database for the weather conditions in past years. The results will help you decide how hot, cold, wet, or windy it might be!

Date:

Astronomy

Sep. 08, 2013 Rise Set
Actual Time 7:19 AM MDT 8:10 PM MDT
Civil Twilight 6:50 AM MDT 8:39 PM MDT
Nautical Twilight 6:15 AM MDT 9:14 PM MDT
Astronomical Twilight 5:38 AM MDT 9:50 PM MDT
Moon 10:51 AM MDT (9/8) 9:39 PM MDT (9/8)
Length of Visible Light 13h 49m
Length of Day
12h 51m
Waxing Crescent, 11% of the Moon is Illuminated
Sep 8
Waxing Crescent
Sep 12
First Quarter
Sep 19
Full
Sep 26
Last Quarter
Oct 4
New

Hourly Weather History & Observations

Time (MDT) Temp. Dew Point Humidity Pressure Visibility Wind Dir Wind Speed Gust Speed Precip Events Conditions
12:53 AM 60.1 °F 50.0 °F 69% 29.96 in 10.0 mi Calm Calm - N/A   Clear
1:53 AM 57.9 °F 50.0 °F 75% 29.98 in 10.0 mi Calm Calm - N/A   Clear
2:53 AM 55.9 °F 50.0 °F 80% 29.97 in 10.0 mi Calm Calm - N/A   Clear
3:53 AM 55.9 °F 50.0 °F 80% 29.96 in 10.0 mi Calm Calm - N/A   Clear
4:53 AM 54.0 °F 50.0 °F 86% 29.97 in 10.0 mi Calm Calm - N/A   Clear
5:53 AM 54.0 °F 50.0 °F 86% 29.97 in 10.0 mi Calm Calm - N/A   Clear
6:53 AM 52.0 °F 48.9 °F 89% 29.98 in 10.0 mi Calm Calm - N/A   Clear
7:53 AM 53.1 °F 50.0 °F 89% 29.99 in 10.0 mi Calm Calm - N/A   Clear
8:53 AM 59.0 °F 53.1 °F 81% 30.01 in 10.0 mi Calm Calm - N/A   Clear
9:53 AM 66.0 °F 53.1 °F 63% 30.01 in 10.0 mi Calm Calm - N/A   Clear
10:53 AM 70.0 °F 54.0 °F 57% 30.00 in 10.0 mi Calm Calm - N/A   Clear
11:53 AM 75.0 °F 53.1 °F 46% 30.00 in 10.0 mi Calm Calm - N/A   Clear
12:53 PM 81.0 °F 46.9 °F 30% 29.97 in 10.0 mi NW 9.2 mph - N/A   Clear
1:53 PM 84.0 °F 44.1 °F 25% 29.96 in 10.0 mi NNW 11.5 mph - N/A   Clear
2:53 PM 84.9 °F 45.0 °F 25% 29.94 in 10.0 mi NW 11.5 mph - N/A   Clear
3:53 PM 86.0 °F 44.1 °F 23% 29.92 in 10.0 mi NW 17.3 mph 23.0 mph N/A   Clear
4:53 PM 86.0 °F 43.0 °F 22% 29.91 in 10.0 mi NNW 17.3 mph 24.2 mph N/A   Clear
5:53 PM 84.9 °F 43.0 °F 23% 29.89 in 10.0 mi NNW 18.4 mph 25.3 mph N/A   Clear
6:53 PM 82.0 °F 43.0 °F 25% 29.90 in 10.0 mi NW 18.4 mph 24.2 mph N/A   Clear
7:53 PM 78.1 °F 43.0 °F 29% 29.90 in 10.0 mi NNW 15.0 mph - N/A   Clear
8:53 PM 73.9 °F 43.0 °F 33% 29.91 in 10.0 mi NW 18.4 mph 25.3 mph N/A   Clear
9:53 PM 73.0 °F 45.0 °F 37% 29.92 in 10.0 mi NW 19.6 mph 27.6 mph N/A   Clear
10:53 PM 71.1 °F 46.0 °F 41% 29.93 in 10.0 mi NW 15.0 mph - N/A   Clear
11:53 PM 69.1 °F 46.0 °F 44% 29.95 in 10.0 mi NW 15.0 mph 21.9 mph N/A   Clear